Location: Praha
(50.0830°N, 14.4670°E)
Time: 10:32:49
(UTC+02:00)

ISS - Pass Details

Date: 18 May 2019
Orbit: 407 x 410 km, 51.6° (Epoch: 21 May)

Event Time Altitude Azimuth Distance (km) Brightness Sun altitude
Rises 22:51:58 0° 236° (WSW) 2,325 0.0 -14.9°
Reaches altitude 10° 22:54:04 10° 232° (SW) 1,468 -1.1 -15.0°
Maximum altitude 22:57:17 53° 155° (SSE) 512 -3.8 -15.3°
Drops below altitude 10° 23:00:31 10° 77° (ENE) 1,475 -1.2 -15.6°
Sets 23:02:38 0° 73° (ENE) 2,339 -0.1 -15.7°
